Location: Ash Observatory
(39.7321°N, 75.2004°W)
Time: 04:06:24
(UTC-04:00)

ISS - Pass Details

Date: 01 April 2019
Orbit: 408 x 410 km, 51.6° (Epoch: 21 April)

Event Time Altitude Azimuth Distance (km) Brightness Sun altitude
Rises 21:59:15 0° 313° (NW) 2,337 1.3 -28.4°
Reaches altitude 10° 22:01:29 10° 323° (NW) 1,473 -0.1 -28.8°
Enters shadow 22:02:12 15° 330° (NNW) 1,217 -0.7 -28.9°
